Temp
11 11 12 12 12 12 11 11 11 11 11 11 10 10 10 9 9 9 8 8 8 8 8 8 7 7 7 7 7 6 6 6 5 5 5 5 4 4 4 4 4 4 3 3 3 3 3 3 3 3 3 3 3 3 3 3 3 3 2 2 2 2 2 2 1 1 1 1 1
11 11 12 12 12 11 11 11 11 10 10 10 10 10 9 9 9 8 8 8 8 8 7 7 7 7 7 7 6 6 6 5 5 5 5 4 4 4 4 4 4 3 3 3 3 3 3 3 3 3 3 3 3 3 3 3 3 2 2 2 2 2 2 1 1 1 1 1 1
11 11 12 12 11 11 11 11 10 10 10 10 9 9 9 8 8 8 8 8 8 7 7 7 7 7 7 6 6 6 5 5 5 5 4 4 4 4 4 3 3 3 3 3 3 3 3 3 3 3 3 3 3 3 3 3 3 2 2 2 2 2 1 1 1 1 1 1 0
11 11 11 11 11 11 11 11 11 10 10 10 9 9 8 8 8 8 8 7 7 7 7 7 7 7 6 6 6 5 5 5 5 4 4 4 4 4 3 3 3 3 3 3 3 3 3 3 3 3 3 3 3 3 3 3 2 2 2 2 2 2 1 1 1 1 1 0 0
11 11 11 11 11 11 11 11 10 10 10 10 9 9 8 8 8 8 7 7 7 7 7 7 6 6 6 6 5 5 5 5 4 4 4 4 4 3 3 3 3 3 3 3 3 3 3 3 3 3 3 3 3 3 2 2 2 2 2 2 2 1 1 1 1 1 0 0 0
11 11 11 11 11 10 10 10 10 10 10 9 9 8 8 8 8 7 7 7 7 7 7 6 6 6 6 5 5 5 5 4 4 4 4 4 3 3 3 3 3 3 3 3 3 3 3 3 3 3 3 3 3 2 2 2 2 2 2 2 2 1 1 1 1 0 0 0 -0
11 11 11 11 10 10 10 10 10 9 9 9 8 8 8 7 7 7 7 7 7 7 6 6 6 6 5 5 5 5 4 4 4 4 4 3 3 3 3 3 3 3 3 3 3 3 3 3 3 3 3 3 2 2 2 2 2 2 2 2 1 1 1 1 1 0 0 -0 -0
11 11 11 10 10 10 10 10 9 9 9 8 8 8 7 7 7 7 7 7 6 6 6 6 6 6 5 5 5 4 4 4 4 4 4 3 3 3 3 3 3 3 3 3 3 3 3 3 3 3 3 3 2 2 2 2 2 2 2 2 1 1 1 1 0 0 -0 -0 -0
11 11 10 10 10 10 9 9 9 9 8 8 8 7 7 7 7 7 7 6 6 6 6 6 6 5 5 5 4 4 4 4 4 4 3 3 3 3 3 3 3 3 2 2 3 3 3 3 3 3 2 2 2 2 2 2 2 2 2 2 1 1 1 1 0 -0 -0 -0 -1
11 10 10 10 9 9 9 9 8 8 8 8 8 7 7 7 7 7 6 6 6 6 6 6 5 5 5 5 4 4 4 4 4 4 3 3 3 3 3 3 3 2 2 2 3 3 3 3 2 2 2 2 2 2 2 2 2 2 2 1 1 1 1 0 0 -0 -0 -1 -1
11 10 10 10 9 9 9 9 8 8 8 8 7 7 7 7 7 6 6 6 6 6 6 5 5 5 5 4 4 4 4 4 4 3 3 3 3 3 3 3 2 2 2 2 2 2 2 2 2 2 2 2 2 2 2 2 2 2 1 1 1 1 1 0 0 -0 -1 -1 -1
10 10 10 9 9 9 9 8 8 8 8 8 7 7 7 7 6 6 6 6 6 6 5 5 5 5 4 4 4 4 4 4 4 3 3 3 3 3 3 2 2 2 2 2 2 2 2 2 2 2 2 2 2 2 2 2 2 1 1 1 1 1 0 0 -0 -1 -1 -1 -1
10 10 9 9 9 9 9 8 8 8 8 7 7 7 7 7 6 6 6 6 6 5 5 5 5 5 4 4 4 4 4 4 3 3 3 3 3 2 2 2 2 2 2 2 2 2 2 2 2 2 2 2 2 2 2 2 1 1 1 1 1 0 0 -0 -0 -1 -1 -1 -2
10 10 9 9 9 9 9 8 8 8 8 7 7 7 7 6 6 6 6 6 5 5 5 5 5 4 4 4 4 4 4 3 3 3 3 3 2 2 2 2 2 2 2 2 2 2 2 2 2 2 2 2 2 2 2 1 1 1 1 1 0 0 -0 -0 -1 -1 -1 -2 -2
10 10 9 9 9 9 9 8 8 8 8 7 7 7 7 6 6 6 6 6 5 5 5 5 5 4 4 4 4 4 3 3 3 3 3 2 2 2 2 2 2 2 2 2 2 2 2 2 2 2 2 2 2 2 1 1 1 1 0 0 -0 -0 -1 -1 -1 -2 -2 -2 -3
10 9 9 9 9 9 8 8 8 8 8 7 7 7 7 6 6 6 6 5 5 5 5 5 4 4 4 4 4 3 3 3 3 2 2 2 2 2 2 2 2 2 2 2 2 2 2 2 2 2 2 2 1 1 1 1 1 0 0 -0 -0 -1 -1 -1 -2 -2 -2 -3 -3
10 9 9 9 9 9 8 8 8 8 8 7 7 7 7 6 6 6 6 5 5 5 5 4 4 4 4 4 3 3 3 3 2 2 2 2 2 2 2 2 2 2 2 2 2 2 2 2 2 2 1 1 1 1 1 1 0 0 -0 -0 -1 -1 -1 -2 -2 -2 -3 -3 -3
9 9 9 9 9 8 8 8 8 8 7 7 7 7 6 6 6 6 5 5 5 5 4 4 4 4 4 3 3 3 3 2 2 2 2 2 2 2 2 2 2 2 2 2 2 2 2 2 1 1 1 1 1 1 0 0 0 0 -0 -0 -1 -1 -1 -2 -2 -3 -3 -3 -4
9 9 9 9 8 8 8 8 8 8 7 7 7 7 6 6 6 6 5 5 5 4 4 4 4 4 3 3 3 3 2 2 2 2 2 2 2 2 2 2 2 2 2 2 2 2 2 1 1 1 1 1 1 0 0 0 0 -0 -0 -1 -1 -1 -2 -2 -3 -3 -3 -4 -4
9 9 9 9 8 8 8 8 8 7 7 7 7 7 6 6 6 5 5 5 4 4 4 4 3 3 3 3 3 2 2 2 2 2 2 2 2 2 2 2 2 2 2 2 2 1 1 1 1 1 1 0 0 0 0 -0 -0 -0 -1 -1 -1 -2 -2 -3 -3 -3 -4 -4 -5
9 9 9 8 8 8 8 8 7 7 7 7 7 6 6 6 5 5 5 5 4 4 4 3 3 3 3 2 2 2 2 2 2 2 2 2 2 2 2 2 2 2 2 1 1 1 1 1 1 1 0 0 0 -0 -0 -0 -1 -1 -1 -1 -2 -2 -3 -3 -3 -4 -4 -5 -5
9 8 8 8 8 8 8 8 7 7 7 7 6 6 6 6 5 5 5 4 4 4 3 3 3 3 2 2 2 2 2 2 2 2 2 2 2 2 2 2 1 1 1 1 1 1 1 1 0 0 0 -0 -0 -0 -1 -1 -1 -1 -2 -2 -2 -3 -3 -3 -4 -4 -5 -5 -6
9 8 8 8 8 8 8 7 7 7 7 7 6 6 6 5 5 5 4 4 4 4 3 3 3 2 2 2 2 2 2 2 2 1 1 1 1 1 1 1 1 1 1 1 1 1 1 0 0 0 -0 -0 -1 -1 -1 -1 -2 -2 -2 -2 -3 -3 -3 -4 -4 -5 -5 -6 -6
8 8 8 8 8 8 7 7 7 7 7 6 6 6 5 5 5 4 4 4 4 3 3 3 2 2 2 2 2 2 2 2 1 1 1 1 1 1 1 1 1 1 1 1 1 1 0 0 -0 -0 -1 -1 -1 -2 -2 -2 -2 -2 -3 -3 -3 -4 -4 -4 -5 -5 -6 -6 -7
8 8 8 8 8 7 7 7 7 7 6 6 6 5 5 5 4 4 4 4 3 3 3 2 2 2 2 2 2 2 1 1 1 1 1 1 1 1 1 1 1 1 1 1 0 0 0 -0 -1 -1 -1 -2 -2 -2 -2 -2 -3 -3 -3 -3 -4 -4 -4 -5 -5 -6 -6 -6 -7
8 8 8 8 7 7 7 7 6 6 6 6 5 5 5 4 4 4 3 3 3 3 2 2 2 2 2 2 1 1 1 1 1 1 1 1 1 1 1 1 1 1 1 0 0 0 -0 -1 -1 -1 -2 -2 -2 -3 -3 -3 -3 -3 -4 -4 -4 -5 -5 -5 -5 -6 -6 -7 -7
8 8 7 7 7 7 7 6 6 6 6 5 5 5 4 4 4 3 3 3 3 2 2 2 1 1 1 1 1 1 1 1 1 1 1 1 1 1 1 1 1 0 0 0 0 -0 -0 -1 -1 -1 -2 -2 -3 -3 -3 -3 -3 -4 -4 -4 -5 -5 -5 -6 -6 -6 -6 -7 -7
8 7 7 7 7 6 6 6 6 5 5 5 5 4 4 4 3 3 3 2 2 2 2 1 1 1 1 1 1 1 1 1 1 1 1 1 1 1 1 1 0 0 0 -0 -0 -0 -1 -1 -1 -2 -2 -3 -3 -3 -4 -4 -4 -4 -4 -5 -5 -5 -6 -6 -6 -6 -7 -7 -7
7 7 7 7 6 6 6 6 5 5 5 5 4 4 4 3 3 3 2 2 2 1 1 1 1 1 1 1 1 1 1 1 1 1 1 1 1 0 0 0 0 0 -0 -0 -0 -1 -1 -1 -1 -2 -2 -3 -4 -4 -4 -4 -4 -5 -5 -5 -5 -6 -6 -6 -6 -7 -7 -7 -7
7 7 6 6 6 6 5 5 5 5 5 4 4 4 3 3 3 3 2 2 1 1 1 1 1 1 1 1 1 1 1 1 0 0 0 0 0 0 0 0 -0 -0 -0 -1 -1 -1 -1 -1 -2 -2 -3 -3 -4 -4 -5 -5 -5 -5 -5 -6 -6 -6 -6 -7 -7 -7 -7 -7 -8
6 6 6 6 6 5 5 5 5 4 4 4 4 3 3 3 3 2 2 1 1 1 1 1 1 1 1 1 1 0 0 0 0 0 0 0 0 0 0 -0 -0 -1 -1 -1 -1 -1 -1 -2 -2 -3 -3 -4 -4 -5 -5 -5 -5 -5 -6 -6 -6 -6 -7 -7 -7 -7 -7 -8 -8
6 6 6 5 5 5 5 5 4 4 4 4 3 3 3 3 2 2 1 1 1 1 1 1 1 1 1 0 0 0 0 0 0 0 0 0 0 -0 -0 -0 -1 -1 -1 -1 -1 -1 -2 -2 -2 -3 -3 -4 -4 -5 -5 -5 -5 -6 -6 -7 -7 -7 -7 -7 -7 -7 -8 -8 -8
6 5 5 5 5 5 4 4 4 4 3 3 3 3 3 2 2 1 1 1 1 1 1 1 1 0 0 0 0 0 0 0 0 0 -0 -0 -0 -0 -0 -1 -1 -1 -1 -1 -2 -2 -2 -2 -3 -3 -4 -4 -5 -5 -5 -5 -6 -6 -7 -7 -7 -7 -7 -7 -7 -8 -8 -8 -8
5 5 5 5 4 4 4 4 3 3 3 3 3 2 2 2 1 1 1 1 1 1 1 1 0 0 0 0 0 0 0 0 -0 -0 -0 -0 -0 -1 -1 -1 -1 -1 -2 -2 -2 -2 -2 -3 -3 -3 -4 -4 -5 -5 -5 -6 -6 -7 -7 -8 -7 -7 -7 -8 -8 -8 -8 -8 -8
5 5 4 4 4 4 4 3 3 3 3 3 2 2 2 1 1 1 1 1 1 1 0 0 0 0 0 0 0 0 0 -0 -0 -0 -0 -1 -1 -1 -1 -1 -1 -2 -2 -2 -2 -2 -3 -3 -3 -4 -4 -4 -5 -5 -6 -6 -7 -8 -8 -8 -8 -8 -8 -8 -8 -8 -8 -8 -8
4 4 4 4 4 3 3 3 3 2 2 2 2 2 1 1 1 1 1 1 0 0 0 0 0 0 0 -0 -0 -0 -0 -0 -0 -1 -1 -1 -1 -1 -1 -1 -2 -2 -2 -2 -3 -3 -3 -3 -4 -4 -4 -5 -5 -6 -6 -7 -8 -8 -8 -8 -8 -8 -8 -8 -8 -8 -8 -8 -8
4 4 4 4 3 3 3 2 2 2 2 2 1 1 1 1 1 1 1 0 0 0 0 0 0 0 -0 -0 -0 -0 -0 -1 -1 -1 -1 -1 -1 -1 -1 -2 -2 -2 -2 -3 -3 -3 -3 -3 -4 -4 -5 -5 -6 -6 -7 -8 -8 -8 -8 -9 -8 -8 -8 -8 -8 -8 -8 -8 -8
4 4 3 3 3 3 2 2 2 2 2 1 1 1 1 1 1 0 0 0 0 0 0 0 -0 -0 -0 -0 -0 -1 -1 -1 -1 -1 -1 -1 -2 -2 -2 -2 -2 -2 -3 -3 -3 -3 -3 -4 -4 -5 -5 -6 -6 -7 -8 -8 -8 -9 -9 -9 -8 -8 -8 -8 -8 -8 -8 -8 -8
3 3 3 3 2 2 2 2 2 2 1 1 1 0 0 0 0 0 0 0 0 0 0 -0 -0 -0 -0 -0 -1 -1 -1 -1 -1 -1 -2 -2 -2 -2 -2 -2 -3 -3 -3 -3 -3 -4 -4 -4 -4 -5 -5 -6 -7 -7 -8 -8 -9 -9 -9 -9 -8 -8 -8 -8 -8 -8 -8 -8 -8
3 3 3 2 2 2 2 2 2 1 1 0 0 0 0 0 0 -0 -0 -0 -0 -0 -0 -0 -0 -0 -1 -1 -1 -1 -1 -1 -1 -2 -2 -2 -2 -2 -3 -3 -3 -3 -3 -3 -4 -4 -4 -4 -5 -5 -6 -6 -7 -8 -8 -8 -9 -9 -9 -9 -8 -8 -8 -8 -8 -8 -8 -8 -8
3 2 2 2 2 2 2 1 1 1 0 0 0 0 0 -0 -0 -0 -0 -0 -0 -0 -0 -0 -1 -1 -1 -1 -1 -1 -1 -1 -2 -2 -2 -2 -2 -3 -3 -3 -3 -3 -3 -4 -4 -4 -4 -5 -5 -6 -6 -7 -8 -8 -9 -9 -9 -9 -9 -8 -8 -8 -8 -8 -8 -8 -8 -8 -8
Height
1475 1476 1478 1480 1481 1483 1484 1485 1486 1487 1487 1488 1489 1490 1490 1490 1491 1491 1492 1492 1493 1493 1493 1493 1493 1493 1493 1493 1493 1493 1492 1492 1492 1491 1491 1490 1490 1490 1489 1489 1488 1488 1488 1487 1487 1486 1486 1486 1485 1485 1484 1484 1483 1482 1481 1480 1480 1479 1478 1477 1476 1475 1474 1473 1472 1471 1470 1470 1468
1475 1476 1478 1480 1481 1482 1483 1484 1485 1486 1487 1488 1488 1489 1490 1490 1490 1491 1491 1492 1492 1492 1492 1492 1492 1492 1492 1492 1492 1492 1492 1491 1491 1490 1490 1490 1489 1489 1488 1488 1488 1487 1487 1486 1486 1486 1485 1485 1485 1484 1484 1483 1482 1481 1480 1480 1479 1478 1477 1476 1475 1474 1473 1472 1471 1470 1469 1468 1467
1475 1476 1478 1479 1480 1481 1482 1483 1484 1485 1486 1487 1488 1488 1489 1489 1490 1490 1491 1491 1491 1491 1491 1491 1491 1492 1492 1492 1491 1491 1491 1491 1490 1490 1489 1489 1489 1488 1488 1487 1487 1486 1486 1486 1485 1485 1485 1484 1484 1483 1483 1482 1481 1480 1480 1479 1478 1477 1476 1475 1474 1473 1472 1471 1470 1469 1468 1467 1466
1475 1476 1477 1479 1480 1481 1482 1483 1484 1485 1485 1486 1487 1488 1488 1489 1489 1490 1490 1490 1490 1491 1491 1491 1491 1491 1491 1491 1491 1490 1490 1490 1490 1489 1489 1488 1488 1487 1487 1486 1486 1486 1485 1485 1485 1484 1484 1483 1483 1482 1482 1481 1480 1480 1479 1478 1477 1476 1475 1474 1473 1472 1471 1470 1469 1467 1466 1465 1464
1475 1476 1477 1478 1480 1481 1482 1483 1483 1484 1485 1486 1486 1487 1488 1488 1489 1489 1490 1490 1490 1490 1490 1490 1490 1490 1490 1490 1490 1490 1490 1489 1489 1488 1488 1487 1487 1486 1486 1486 1485 1485 1485 1484 1484 1484 1483 1483 1482 1481 1481 1480 1479 1478 1477 1477 1476 1475 1474 1473 1472 1470 1470 1468 1467 1466 1465 1464 1463
1474 1476 1477 1478 1479 1480 1481 1482 1483 1484 1485 1485 1486 1487 1487 1488 1488 1489 1489 1489 1489 1490 1490 1490 1490 1490 1490 1490 1489 1489 1489 1488 1488 1487 1487 1487 1486 1486 1485 1485 1485 1484 1484 1484 1483 1483 1482 1482 1481 1480 1480 1479 1478 1477 1476 1475 1475 1474 1473 1472 1470 1470 1468 1467 1466 1465 1464 1462 1461
1474 1475 1476 1478 1479 1480 1481 1482 1483 1484 1484 1485 1486 1486 1487 1487 1488 1488 1488 1489 1489 1489 1489 1489 1489 1489 1489 1489 1489 1488 1488 1488 1487 1487 1486 1486 1485 1485 1485 1484 1484 1484 1483 1483 1482 1482 1481 1481 1480 1480 1479 1478 1477 1476 1475 1474 1473 1472 1471 1470 1469 1468 1467 1465 1464 1463 1462 1461 1460
1474 1475 1476 1477 1479 1480 1480 1481 1482 1483 1484 1485 1485 1486 1486 1487 1487 1487 1488 1488 1488 1488 1488 1488 1488 1488 1488 1488 1488 1487 1487 1487 1486 1486 1485 1485 1485 1485 1484 1484 1483 1483 1482 1482 1482 1481 1481 1480 1479 1479 1478 1477 1476 1475 1474 1473 1472 1471 1470 1469 1468 1467 1466 1464 1463 1462 1460 1459 1458
1473 1475 1476 1477 1478 1479 1480 1481 1482 1483 1483 1484 1485 1485 1486 1486 1486 1487 1487 1487 1487 1488 1488 1488 1488 1488 1487 1487 1487 1487 1486 1486 1486 1485 1485 1485 1484 1484 1484 1483 1483 1482 1482 1481 1481 1480 1480 1479 1478 1477 1476 1475 1475 1474 1473 1471 1470 1469 1468 1467 1466 1465 1464 1463 1462 1460 1459 1458 1456
1473 1474 1475 1477 1478 1479 1480 1480 1481 1482 1483 1484 1484 1485 1485 1486 1486 1486 1486 1487 1487 1487 1487 1487 1487 1487 1486 1486 1486 1486 1485 1485 1485 1485 1484 1484 1484 1483 1483 1482 1482 1481 1481 1480 1480 1479 1479 1478 1477 1476 1475 1475 1473 1472 1471 1470 1469 1468 1467 1466 1465 1464 1462 1461 1460 1459 1457 1456 1455
1473 1474 1475 1476 1477 1478 1479 1480 1481 1482 1482 1483 1484 1484 1485 1485 1485 1486 1486 1486 1486 1486 1486 1486 1486 1486 1486 1485 1485 1485 1485 1485 1484 1484 1483 1483 1483 1482 1482 1482 1481 1481 1480 1480 1479 1478 1477 1477 1476 1475 1474 1473 1472 1471 1470 1469 1468 1467 1465 1464 1463 1462 1461 1460 1459 1457 1456 1454 1453
1472 1474 1475 1476 1477 1478 1479 1480 1480 1481 1482 1483 1483 1484 1484 1485 1485 1485 1485 1485 1485 1485 1485 1485 1485 1485 1485 1485 1485 1484 1484 1484 1483 1483 1483 1482 1482 1482 1481 1481 1480 1480 1479 1478 1478 1477 1476 1475 1475 1474 1473 1472 1471 1470 1469 1467 1466 1465 1464 1463 1461 1460 1459 1458 1457 1455 1454 1453 1451
1472 1473 1474 1475 1476 1477 1478 1479 1480 1481 1481 1482 1483 1483 1484 1484 1485 1485 1485 1485 1485 1485 1485 1485 1485 1485 1484 1484 1484 1484 1483 1483 1483 1482 1482 1481 1481 1481 1480 1480 1479 1479 1478 1477 1477 1476 1475 1474 1473 1472 1471 1470 1470 1468 1467 1466 1465 1463 1462 1461 1460 1459 1457 1456 1455 1454 1452 1451 1450
1472 1473 1474 1475 1476 1477 1478 1479 1480 1480 1481 1482 1482 1483 1483 1484 1484 1484 1484 1484 1484 1484 1484 1484 1484 1484 1484 1483 1483 1483 1482 1482 1482 1481 1481 1480 1480 1480 1480 1479 1478 1478 1477 1476 1475 1475 1474 1473 1472 1471 1470 1469 1468 1467 1466 1465 1463 1462 1460 1459 1458 1457 1455 1454 1453 1452 1450 1449 1447
1471 1473 1474 1475 1475 1476 1477 1478 1479 1480 1480 1481 1482 1482 1483 1483 1483 1483 1484 1484 1483 1483 1483 1483 1483 1483 1483 1483 1482 1482 1482 1481 1481 1480 1480 1480 1479 1479 1479 1478 1477 1477 1476 1475 1475 1473 1472 1471 1470 1469 1468 1467 1466 1465 1464 1463 1462 1460 1459 1458 1456 1455 1454 1452 1451 1450 1448 1447 1445
1471 1472 1473 1474 1475 1476 1477 1478 1479 1479 1480 1481 1481 1482 1482 1482 1482 1483 1483 1483 1483 1483 1482 1482 1482 1482 1482 1482 1481 1481 1481 1480 1480 1480 1479 1479 1478 1478 1478 1477 1476 1476 1475 1474 1473 1472 1471 1470 1469 1468 1467 1466 1465 1464 1463 1462 1460 1459 1458 1456 1455 1454 1452 1450 1449 1448 1446 1445 1444
1471 1472 1473 1474 1475 1476 1477 1477 1478 1479 1480 1480 1481 1481 1481 1481 1482 1482 1482 1482 1482 1482 1482 1481 1481 1481 1481 1481 1480 1480 1480 1480 1479 1479 1478 1478 1478 1477 1476 1476 1475 1475 1474 1473 1472 1471 1470 1469 1468 1467 1466 1465 1464 1462 1461 1460 1459 1458 1456 1455 1454 1452 1450 1449 1448 1446 1445 1444 1442
1471 1472 1473 1474 1475 1475 1476 1477 1478 1478 1479 1480 1480 1480 1480 1481 1481 1481 1481 1481 1481 1481 1481 1480 1480 1480 1480 1480 1480 1479 1479 1479 1478 1478 1477 1477 1476 1476 1475 1475 1474 1473 1473 1472 1471 1470 1469 1468 1467 1465 1465 1463 1462 1461 1460 1459 1457 1456 1455 1453 1452 1450 1449 1448 1446 1445 1443 1442 1440
1470 1471 1472 1473 1474 1475 1476 1476 1477 1478 1478 1479 1479 1480 1480 1480 1480 1480 1480 1480 1480 1480 1480 1480 1480 1480 1479 1479 1479 1478 1478 1478 1477 1477 1476 1476 1475 1475 1474 1474 1473 1472 1471 1470 1470 1469 1468 1466 1465 1464 1463 1462 1461 1460 1458 1457 1456 1454 1453 1451 1450 1449 1447 1446 1445 1443 1442 1440 1439
1470 1471 1472 1473 1474 1475 1475 1476 1477 1477 1478 1478 1478 1479 1479 1479 1479 1479 1479 1479 1479 1479 1479 1479 1479 1479 1478 1478 1478 1477 1477 1477 1476 1476 1475 1475 1474 1474 1473 1473 1472 1471 1470 1469 1468 1467 1466 1465 1464 1463 1461 1460 1459 1458 1456 1455 1454 1453 1451 1450 1449 1447 1446 1445 1443 1442 1440 1439 1438
1470 1470 1471 1472 1473 1474 1475 1475 1476 1476 1477 1477 1478 1478 1478 1478 1478 1479 1479 1479 1479 1479 1478 1478 1478 1478 1478 1477 1477 1477 1476 1476 1475 1475 1474 1474 1473 1473 1472 1471 1471 1470 1469 1468 1467 1466 1465 1464 1462 1461 1460 1459 1457 1456 1455 1453 1452 1451 1449 1448 1447 1445 1444 1443 1441 1440 1439 1437 1436
1469 1470 1471 1472 1473 1473 1474 1475 1475 1476 1476 1476 1477 1477 1477 1477 1478 1478 1478 1478 1478 1478 1478 1477 1477 1477 1477 1476 1476 1476 1475 1475 1475 1474 1473 1473 1472 1471 1471 1470 1470 1469 1468 1467 1466 1465 1464 1462 1461 1460 1458 1457 1455 1454 1453 1451 1450 1449 1447 1446 1445 1444 1442 1441 1440 1438 1437 1436 1434
1469 1470 1470 1471 1472 1473 1474 1474 1475 1475 1475 1475 1476 1476 1476 1477 1477 1477 1477 1477 1477 1477 1477 1477 1476 1476 1476 1476 1475 1475 1475 1474 1474 1473 1472 1472 1471 1470 1470 1469 1468 1468 1467 1466 1465 1463 1462 1460 1459 1458 1456 1455 1453 1452 1451 1450 1448 1447 1445 1444 1443 1442 1440 1439 1438 1437 1435 1434 1433
1468 1469 1470 1471 1471 1472 1473 1473 1474 1474 1475 1475 1475 1475 1475 1476 1476 1476 1476 1476 1476 1476 1476 1476 1475 1475 1475 1475 1475 1474 1474 1473 1473 1472 1471 1471 1470 1469 1469 1468 1467 1466 1465 1464 1463 1462 1460 1459 1457 1456 1455 1453 1452 1450 1449 1448 1447 1445 1444 1442 1441 1440 1438 1437 1436 1435 1434 1432 1431
1468 1469 1469 1470 1471 1471 1472 1472 1473 1473 1474 1474 1474 1475 1475 1475 1475 1475 1475 1475 1475 1475 1475 1475 1475 1474 1474 1474 1474 1473 1473 1472 1472 1471 1471 1470 1469 1468 1468 1467 1466 1465 1464 1463 1462 1461 1459 1458 1456 1455 1453 1451 1450 1449 1448 1446 1445 1444 1442 1441 1439 1438 1436 1435 1434 1433 1432 1430 1429
1467 1468 1469 1470 1470 1471 1471 1472 1472 1472 1473 1473 1474 1474 1474 1474 1475 1475 1475 1475 1475 1474 1474 1474 1474 1473 1473 1473 1472 1472 1472 1471 1471 1470 1470 1469 1468 1467 1466 1465 1465 1464 1463 1462 1460 1459 1458 1457 1455 1454 1452 1450 1449 1447 1446 1445 1443 1442 1441 1439 1438 1436 1435 1433 1432 1431 1430 1429 1428
1466 1467 1468 1469 1470 1470 1470 1471 1471 1472 1472 1472 1473 1473 1473 1474 1474 1474 1474 1474 1474 1473 1473 1473 1473 1473 1472 1472 1471 1471 1470 1470 1470 1469 1468 1468 1467 1466 1465 1464 1463 1462 1461 1460 1459 1458 1457 1455 1454 1452 1451 1449 1448 1446 1445 1443 1442 1440 1439 1438 1436 1435 1433 1432 1430 1429 1428 1427 1425
1466 1466 1467 1468 1469 1469 1470 1470 1470 1471 1471 1472 1472 1472 1473 1473 1473 1473 1473 1473 1473 1473 1472 1472 1472 1472 1471 1471 1470 1470 1470 1469 1468 1468 1467 1466 1466 1465 1464 1463 1462 1461 1460 1459 1458 1456 1455 1454 1452 1451 1450 1448 1446 1445 1443 1442 1440 1439 1437 1436 1435 1433 1432 1430 1429 1427 1426 1425 1424
1465 1466 1467 1467 1468 1468 1469 1469 1470 1470 1470 1471 1471 1472 1472 1472 1472 1472 1472 1472 1472 1472 1472 1471 1471 1471 1470 1470 1470 1469 1468 1468 1467 1467 1466 1465 1465 1464 1463 1461 1460 1459 1458 1457 1456 1455 1454 1452 1451 1450 1448 1447 1445 1443 1441 1440 1439 1437 1436 1434 1433 1432 1430 1429 1427 1425 1424 1423 1422
1465 1465 1466 1467 1467 1468 1468 1469 1469 1470 1470 1470 1471 1471 1471 1472 1472 1472 1471 1471 1471 1471 1471 1471 1470 1470 1470 1469 1469 1468 1467 1467 1466 1465 1465 1464 1463 1462 1461 1460 1459 1458 1457 1456 1455 1453 1452 1451 1449 1448 1446 1445 1444 1442 1440 1439 1437 1436 1434 1433 1431 1430 1429 1427 1426 1424 1423 1422 1420
1464 1465 1465 1466 1466 1467 1467 1468 1469 1469 1470 1470 1470 1470 1471 1471 1471 1471 1470 1470 1470 1470 1470 1470 1470 1469 1469 1468 1468 1467 1466 1465 1465 1464 1463 1463 1462 1461 1460 1459 1457 1456 1455 1454 1453 1452 1450 1449 1448 1446 1445 1444 1442 1440 1439 1437 1435 1434 1433 1431 1430 1429 1427 1426 1424 1423 1422 1420 1419
1463 1464 1465 1465 1466 1466 1467 1467 1468 1469 1469 1469 1470 1470 1470 1470 1470 1470 1470 1470 1470 1470 1469 1469 1469 1468 1468 1467 1467 1466 1465 1465 1464 1463 1462 1461 1460 1460 1458 1457 1456 1455 1454 1452 1451 1450 1449 1447 1446 1445 1443 1442 1440 1439 1437 1435 1434 1432 1431 1430 1428 1427 1426 1425 1423 1422 1420 1420 1418
1463 1464 1464 1465 1465 1466 1466 1467 1467 1468 1468 1469 1469 1469 1469 1469 1469 1469 1469 1469 1469 1469 1469 1468 1468 1467 1467 1466 1466 1465 1464 1464 1463 1462 1461 1460 1459 1458 1457 1456 1455 1453 1452 1451 1450 1448 1447 1446 1444 1443 1442 1440 1439 1437 1435 1434 1432 1431 1429 1428 1427 1426 1425 1423 1422 1420 1419 1418 1417
1462 1463 1464 1464 1465 1465 1466 1466 1467 1467 1468 1468 1468 1468 1468 1468 1468 1468 1468 1468 1468 1468 1468 1467 1467 1466 1466 1465 1465 1464 1463 1462 1461 1460 1460 1458 1457 1456 1455 1454 1453 1452 1450 1449 1448 1447 1445 1444 1443 1441 1440 1439 1437 1435 1434 1432 1430 1429 1428 1426 1425 1424 1423 1422 1420 1419 1418 1417 1415
1462 1463 1463 1464 1465 1465 1465 1466 1466 1466 1467 1467 1467 1467 1467 1467 1468 1468 1468 1467 1467 1467 1466 1466 1466 1465 1465 1464 1464 1463 1462 1461 1460 1459 1458 1457 1456 1455 1454 1453 1452 1450 1449 1448 1446 1445 1444 1443 1441 1440 1438 1437 1435 1433 1432 1430 1429 1427 1426 1425 1424 1423 1421 1420 1419 1418 1417 1415 1414
1461 1462 1463 1463 1464 1465 1465 1465 1465 1466 1466 1466 1466 1466 1467 1467 1467 1467 1467 1467 1466 1466 1466 1465 1465 1464 1464 1463 1462 1462 1461 1460 1459 1458 1457 1455 1455 1454 1452 1451 1450 1449 1448 1446 1445 1444 1442 1441 1440 1438 1437 1435 1433 1431 1430 1429 1427 1426 1425 1423 1422 1421 1420 1419 1417 1416 1415 1414 1413
1461 1462 1462 1463 1463 1464 1464 1465 1465 1465 1465 1465 1466 1466 1466 1466 1466 1466 1466 1466 1465 1465 1465 1464 1464 1463 1463 1462 1461 1460 1460 1458 1457 1456 1455 1454 1453 1452 1451 1450 1449 1447 1446 1445 1443 1442 1441 1440 1438 1437 1435 1433 1431 1430 1428 1427 1426 1425 1423 1422 1421 1420 1418 1417 1416 1415 1414 1413 1412
1460 1461 1462 1462 1463 1463 1464 1464 1465 1465 1465 1465 1465 1465 1465 1465 1465 1465 1465 1465 1465 1465 1464 1463 1463 1462 1462 1461 1460 1460 1458 1457 1456 1455 1454 1453 1451 1450 1449 1448 1447 1446 1445 1443 1442 1440 1439 1438 1437 1435 1434 1432 1430 1428 1427 1426 1425 1423 1422 1421 1419 1418 1417 1416 1415 1414 1413 1411 1410
1460 1461 1462 1462 1463 1463 1463 1464 1464 1464 1464 1465 1465 1465 1465 1465 1465 1465 1464 1464 1464 1464 1463 1462 1462 1461 1460 1460 1459 1459 1457 1456 1455 1454 1453 1451 1450 1449 1448 1446 1445 1444 1443 1442 1440 1439 1438 1436 1435 1434 1432 1430 1429 1427 1426 1425 1423 1422 1421 1420 1418 1416 1415 1415 1414 1412 1411 1410 1409
1460 1461 1461 1462 1462 1463 1463 1463 1463 1463 1464 1464 1464 1464 1464 1464 1464 1464 1463 1463 1463 1462 1462 1461 1461 1460 1459 1459 1458 1457 1456 1455 1454 1453 1452 1450 1449 1448 1446 1445 1444 1442 1441 1440 1439 1437 1436 1435 1434 1432 1431 1429 1428 1426 1425 1424 1422 1421 1420 1418 1417 1415 1414 1413 1412 1411 1410 1408 1408
1460 1460 1461 1461 1462 1462 1462 1463 1463 1463 1463 1463 1463 1463 1463 1463 1463 1463 1462 1462 1462 1461 1461 1460 1460 1459 1458 1457 1457 1456 1455 1454 1453 1452 1451 1449 1448 1447 1445 1444 1442 1441 1440 1439 1437 1436 1435 1434 1432 1431 1430 1428 1427 1425 1424 1423 1421 1420 1418 1417 1416 1415 1414 1412 1410 1409 1408 1407 1406
Wind_Speed
19 20 22 23 23 22 21 19 18 16 14 13 13 12 11 9 8 6 4 2 1 2 3 5 6 7 8 9 9 10 11 12 12 13 14 14 14 15 15 15 15 15 15 15 15 15 16 16 17 18 19 20 21 22 23 24 25 26 26 26 27 27 26 26 26 26 26 26 26
21 22 23 23 23 22 21 20 18 17 15 14 13 12 10 8 7 5 3 2 1 2 3 5 6 7 8 9 9 10 11 12 12 13 14 14 15 15 15 15 15 15 15 15 15 16 16 17 18 19 20 21 22 23 24 25 25 26 26 27 27 26 26 26 26 26 26 27 27
23 24 24 24 23 22 21 20 19 17 16 15 13 11 10 8 6 5 3 2 1 2 3 5 6 7 8 9 9 10 11 12 12 13 14 14 15 15 15 15 15 15 16 16 16 16 17 18 19 19 21 22 23 24 25 25 26 26 27 27 26 26 26 26 26 27 27 27 27
25 25 25 24 23 22 21 20 19 18 16 15 13 11 9 8 6 4 3 1 1 2 3 5 6 7 8 9 9 10 11 12 13 13 14 15 15 15 15 16 16 16 16 16 17 17 18 19 19 20 21 22 24 25 26 26 26 26 26 26 26 26 26 26 27 27 27 28 28
26 26 25 24 23 22 20 19 18 17 16 14 12 10 9 7 6 4 2 1 1 2 3 5 6 7 8 9 10 10 11 12 13 14 14 15 15 16 16 16 16 16 16 17 17 18 18 19 20 21 22 23 24 25 26 26 26 26 26 26 26 26 26 27 27 28 28 28 29
27 26 24 23 22 21 20 19 17 16 15 13 11 9 8 7 5 3 2 1 1 2 4 5 6 8 8 9 10 11 11 12 13 14 15 15 16 16 16 16 16 17 17 17 18 18 19 20 21 22 23 24 25 26 26 26 26 26 26 26 26 26 27 27 28 28 29 29 29
27 26 25 23 22 21 20 18 17 15 13 11 10 9 7 6 4 3 2 1 2 3 4 6 7 8 9 10 10 11 12 13 14 14 15 16 16 16 16 17 17 17 17 18 18 19 20 21 22 23 24 25 25 26 26 26 26 26 26 26 26 26 27 28 28 29 29 30 30
27 26 24 23 22 21 19 18 16 15 13 11 10 8 7 6 4 3 2 2 3 4 5 7 8 9 10 10 11 12 12 13 14 15 16 16 16 17 17 17 17 17 18 18 19 20 21 22 22 24 24 25 25 26 26 26 26 26 26 27 27 27 28 28 29 30 30 30 31
27 26 24 23 22 20 19 17 16 14 12 11 10 8 7 6 4 4 3 4 4 6 7 8 9 9 10 11 11 12 13 14 15 16 16 17 17 17 17 17 17 18 18 19 20 20 21 22 23 24 25 25 25 26 26 26 26 27 27 27 28 28 28 29 29 30 31 31 31
28 26 24 23 22 20 19 17 16 14 12 11 9 8 7 6 5 4 5 5 6 7 8 9 9 10 11 11 12 13 14 15 16 16 17 17 17 17 17 17 18 18 19 20 20 21 22 23 24 24 25 25 25 26 26 26 27 27 27 28 28 29 29 29 30 30 31 31 31
27 26 24 23 22 21 19 18 16 15 13 11 9 8 7 6 5 5 6 6 7 8 9 10 10 11 12 12 13 14 15 16 16 17 17 17 17 17 17 18 18 19 19 20 21 22 23 23 24 24 25 25 25 26 26 27 27 28 28 29 29 30 30 30 30 31 31 31 31
27 25 24 23 22 21 20 18 17 15 13 11 9 8 7 7 6 6 7 8 9 9 10 10 11 12 12 13 14 15 16 16 17 17 17 17 17 17 18 18 18 19 20 21 22 22 23 24 24 24 25 25 26 26 27 27 28 28 29 29 30 30 30 31 31 31 31 31 31
26 25 24 23 22 21 20 18 17 15 13 11 10 9 8 7 7 7 8 9 10 10 11 11 12 12 13 14 15 16 16 17 17 17 17 17 17 17 18 18 19 20 20 21 22 23 24 24 24 25 25 26 26 27 27 28 28 29 29 30 30 31 31 31 31 31 31 31 31
26 25 24 23 22 20 19 18 17 15 14 12 11 9 9 8 8 8 9 10 10 11 11 12 12 13 14 15 16 16 17 17 17 17 17 17 17 17 18 19 19 20 21 22 23 23 24 24 25 25 26 26 27 27 28 28 29 29 30 30 31 31 31 31 31 31 31 31 31
25 24 23 22 21 20 19 18 17 16 14 13 11 10 9 9 9 9 10 10 11 11 12 13 13 14 15 16 16 17 17 17 17 17 17 17 17 18 18 19 20 20 21 22 23 23 24 25 25 26 27 27 28 28 28 29 29 30 30 30 31 31 31 31 31 31 31 31 31
25 24 22 21 20 19 18 18 17 16 15 14 12 11 10 10 10 10 11 11 12 12 13 13 14 15 15 16 17 17 17 17 17 17 17 17 17 18 19 19 20 21 21 22 23 24 24 25 26 27 27 28 28 28 29 29 29 30 30 30 31 31 31 31 31 31 31 31 31
24 22 21 20 19 19 18 18 17 16 15 14 13 12 11 11 11 11 11 12 12 13 13 14 15 15 16 16 17 17 17 17 17 16 17 17 18 18 19 20 21 21 22 23 23 24 25 25 26 27 27 28 28 29 29 29 30 30 30 31 31 31 31 31 31 31 31 31 31
22 21 20 19 19 18 18 18 17 17 16 15 14 13 12 12 12 12 12 12 13 13 14 15 15 16 16 17 17 17 17 16 16 17 17 17 18 19 20 20 21 22 22 23 24 24 25 26 27 27 28 28 28 29 29 29 30 30 30 31 31 31 31 31 31 31 31 31 31
21 20 19 19 18 18 18 18 17 17 16 15 14 13 13 12 12 12 13 13 13 14 14 15 15 16 16 16 17 16 16 16 16 17 17 18 19 19 20 21 21 22 23 24 24 25 26 26 27 27 28 28 29 29 29 30 30 30 31 31 31 31 31 31 31 31 30 30 30
20 19 19 19 18 18 18 18 17 17 16 16 15 14 13 13 13 13 13 13 14 14 15 15 16 16 16 17 16 16 16 16 16 17 18 18 19 20 20 21 22 22 23 24 25 25 26 27 27 28 28 29 29 29 30 30 30 31 31 31 31 31 31 31 31 30 30 30 29
19 19 19 19 19 18 18 18 17 17 16 16 15 14 13 13 13 13 13 14 14 15 15 15 16 16 16 16 16 16 16 17 17 17 18 19 19 20 21 21 22 23 24 24 25 26 26 27 28 28 29 29 29 30 30 31 31 31 31 32 32 31 31 31 30 30 29 29 28
19 19 19 19 19 18 18 18 17 17 16 16 15 14 13 13 13 13 13 14 15 15 16 16 16 16 16 16 16 16 16 17 17 18 18 19 20 21 21 22 23 23 24 25 25 26 27 27 28 28 29 30 30 30 31 31 31 32 32 32 32 32 31 31 30 29 29 28 27
19 19 19 19 19 18 18 18 17 17 16 15 15 14 13 13 13 13 14 14 15 16 16 16 16 16 16 16 16 16 16 17 17 18 18 19 20 21 22 22 23 24 24 25 26 26 27 28 28 29 29 30 30 30 31 31 32 32 32 32 32 32 31 30 30 29 28 27 25
19 19 19 19 19 18 18 18 17 17 16 15 14 13 13 13 13 13 14 15 16 16 16 16 16 16 15 15 16 16 16 16 17 18 19 19 20 21 22 23 24 24 25 25 26 27 27 28 29 29 30 30 30 30 31 31 32 32 32 32 32 32 31 30 29 28 27 25 24
18 18 18 18 18 18 18 18 17 16 16 15 14 13 13 13 13 14 15 15 16 16 16 16 15 15 15 15 16 16 16 16 17 18 19 20 21 22 23 23 24 25 25 26 26 27 27 28 28 29 29 30 30 30 31 31 32 32 32 32 32 32 31 31 29 27 25 24 23
18 18 18 18 18 18 18 17 17 16 15 14 13 13 12 13 13 14 15 16 16 16 15 15 15 15 15 15 16 16 16 17 17 18 19 20 21 22 23 24 24 25 25 26 26 27 27 27 28 28 29 29 30 30 31 31 32 32 32 32 31 31 31 30 29 27 25 23 23
18 18 18 18 18 18 17 17 16 16 15 14 13 12 12 13 14 14 15 15 15 15 14 14 14 15 15 15 16 16 17 17 18 19 20 21 22 23 23 24 25 25 26 26 26 27 27 27 28 28 28 29 29 30 30 31 31 32 32 31 31 31 30 30 28 27 25 23 22
18 18 18 18 18 17 17 17 16 15 14 13 12 12 12 13 14 14 15 15 14 14 13 14 14 15 15 15 16 16 17 18 19 20 20 21 22 23 24 25 25 26 26 26 27 27 27 28 28 28 28 28 28 29 30 30 31 31 31 31 31 30 30 29 27 25 24 22 21
18 18 18 17 17 17 17 16 15 14 13 12 12 12 12 13 14 14 14 14 13 13 13 13 14 15 15 15 16 16 17 18 19 20 21 22 23 23 24 25 26 26 26 27 27 27 28 28 28 28 28 28 28 28 29 30 30 31 31 31 30 30 29 27 25 23 21 20 19
17 17 17 17 17 17 16 15 14 13 12 12 12 12 12 13 13 13 13 13 12 12 13 14 14 14 15 15 16 17 18 19 20 21 22 22 23 24 25 25 26 26 27 27 27 28 28 28 29 29 28 27 27 27 28 29 30 30 30 30 30 29 28 26 23 20 19 18 17
17 17 17 17 16 16 15 14 13 12 12 11 11 12 12 12 12 12 12 12 12 13 13 14 14 14 14 15 16 17 18 19 20 21 22 23 24 24 25 26 26 27 27 27 28 28 28 28 29 29 28 27 27 27 28 29 29 29 29 29 29 28 26 23 20 18 17 17 18
17 17 17 16 16 15 14 13 12 11 11 11 11 12 12 12 12 12 12 11 12 12 13 13 13 14 15 16 16 18 19 20 21 22 23 24 24 25 25 26 26 27 27 28 28 28 28 29 29 29 28 27 27 27 28 28 28 28 29 29 28 27 24 21 19 17 17 18 18
17 17 16 16 15 14 13 12 11 11 11 11 11 12 12 12 12 11 11 11 12 12 13 13 13 14 15 16 17 18 19 20 22 23 23 24 25 25 26 26 27 27 28 28 28 28 29 29 29 29 28 27 27 27 28 28 28 28 28 28 28 26 23 20 18 18 18 18 19
17 16 15 15 14 13 12 11 11 11 11 11 11 12 12 12 11 11 11 11 12 12 12 13 14 15 16 17 18 19 20 21 22 23 24 25 25 26 26 26 27 27 28 28 29 29 29 29 29 29 29 28 28 28 27 27 27 27 27 28 27 25 22 19 18 18 19 19 20
16 15 15 14 13 12 11 11 10 10 11 11 11 11 11 11 10 10 11 11 12 12 12 13 14 15 16 18 19 20 21 22 23 23 24 25 26 26 26 27 27 28 28 28 29 29 29 29 29 29 29 28 28 28 27 26 26 26 27 27 26 24 22 20 20 19 19 20 21
15 15 14 13 12 11 11 10 10 10 11 11 11 11 10 10 10 10 10 11 11 12 13 14 15 16 17 18 19 20 21 22 23 24 25 25 26 26 27 27 27 28 28 29 29 29 30 30 30 29 29 28 28 27 26 25 25 25 26 26 26 24 23 21 21 20 20 21 23
15 14 13 12 11 10 10 10 10 10 11 10 10 10 10 9 9 9 10 10 11 12 13 14 15 16 17 19 20 21 22 23 24 24 25 26 26 27 27 28 28 28 28 29 29 30 30 30 30 29 29 28 27 26 25 24 24 25 25 26 25 24 23 22 21 21 21 22 25
14 13 12 11 10 10 9 10 10 10 10 10 9 9 9 9 9 9 10 10 11 12 14 15 16 17 18 19 20 21 22 23 24 25 25 26 26 27 28 28 28 29 29 29 30 30 30 30 29 29 28 27 26 25 24 24 24 24 25 25 25 25 24 22 21 21 23 25 28
13 12 11 10 9 9 9 10 10 10 9 9 9 9 8 8 9 9 10 11 12 13 15 16 17 18 19 20 21 21 22 23 24 25 25 26 27 27 28 28 29 29 29 29 30 30 30 30 29 28 27 25 24 23 23 23 23 24 25 25 25 25 24 22 21 23 26 29 31
12 11 10 9 8 9 9 10 10 9 9 8 8 8 8 8 9 10 11 12 13 15 16 17 18 19 20 21 21 22 22 23 24 24 25 26 27 27 28 29 29 29 29 30 30 30 30 30 29 28 26 24 23 22 22 22 23 24 25 25 25 25 24 23 23 26 29 32 32
10 9 8 8 8 9 9 9 9 8 8 7 7 8 8 8 9 11 12 13 14 15 16 17 18 19 20 21 22 22 23 23 24 24 25 26 27 27 28 29 29 30 30 30 30 30 30 29 29 27 25 23 22 21 21 22 23 24 25 25 25 24 24 25 27 30 32 33 31
Wind_Direction
189 189 189 187 186 185 185 186 186 186 186 187 189 189 188 183 177 173 167 150 96 46 25 14 5 356 350 344 338 334 330 329 328 327 326 326 325 323 322 321 320 319 318 317 317 317 317 318 319 320 321 322 323 324 324 324 324 325 325 324 324 324 324 323 323 322 321 320 319
186 186 186 185 185 185 185 185 184 183 184 186 188 188 184 178 174 170 163 144 89 35 16 6 358 351 344 337 333 329 327 326 326 326 325 324 323 322 321 320 319 318 317 316 316 317 317 318 320 321 322 322 323 323 323 323 324 324 324 324 323 323 323 323 322 321 320 319 318
184 184 184 184 185 186 187 186 185 185 186 187 188 185 179 175 171 168 159 141 68 21 7 358 349 343 336 330 326 324 324 324 324 324 324 323 322 321 320 318 317 316 316 316 316 317 318 319 320 321 322 322 323 323 323 323 323 323 324 324 323 323 322 322 321 320 319 318 317
183 183 184 185 187 189 189 189 188 189 190 190 188 183 177 173 171 168 163 148 39 11 356 346 339 333 328 323 321 320 321 321 322 322 322 321 320 319 318 317 316 316 316 316 317 317 319 320 320 321 322 322 323 322 322 322 323 323 323 323 323 322 322 321 320 319 318 317 316
182 183 185 187 189 190 191 192 192 193 194 193 188 181 176 173 172 172 168 146 18 347 340 334 328 323 319 317 316 316 317 318 319 320 320 319 318 317 316 316 315 315 315 316 317 318 319 320 320 321 321 322 322 322 322 322 323 323 323 323 322 322 321 320 319 318 317 316 316
181 183 185 188 189 190 190 191 193 195 195 192 186 179 175 174 174 173 174 186 311 322 324 322 318 315 312 311 312 313 314 316 316 317 317 317 316 316 315 315 314 314 315 316 317 318 319 319 320 320 321 322 322 322 322 322 322 323 323 322 322 321 320 319 318 317 316 315 315
182 184 186 188 189 189 189 190 192 193 192 188 182 178 177 177 179 184 201 252 291 304 308 309 307 306 306 306 308 310 312 313 314 314 314 315 314 314 314 313 314 314 315 316 317 318 318 319 320 320 321 322 322 322 322 322 322 322 322 322 321 320 319 318 317 316 315 314 314
183 185 187 188 188 188 189 190 192 192 189 185 181 180 182 185 192 205 229 260 278 289 296 299 299 300 302 303 305 307 309 311 311 312 312 313 313 313 313 313 313 314 314 315 317 318 318 319 320 321 321 322 322 322 322 322 322 322 322 321 321 320 319 317 316 315 314 314 313
184 185 186 187 186 187 188 190 192 192 189 186 184 186 190 196 206 222 242 259 273 283 290 292 294 297 299 300 303 305 307 309 310 311 311 312 312 312 312 312 313 313 314 315 316 318 319 320 321 321 322 322 323 322 322 322 322 321 321 321 320 319 318 317 316 315 314 313 312
184 185 185 184 184 185 187 189 191 192 192 191 190 192 197 206 218 233 248 262 274 281 284 287 291 294 297 298 301 303 305 307 309 310 310 311 311 311 311 312 312 313 314 315 317 318 319 320 321 322 322 322 322 322 322 321 321 321 320 320 319 318 317 316 315 314 313 312 312
186 185 185 184 184 186 188 190 192 194 196 196 197 200 206 215 227 240 254 265 273 277 281 286 289 292 295 297 300 302 304 306 308 309 310 310 310 311 311 312 312 314 315 316 317 318 320 321 321 322 322 322 322 322 321 321 321 320 320 319 318 318 317 316 315 313 312 312 311
186 186 185 185 186 187 189 192 195 198 200 201 203 206 213 223 235 246 257 266 271 275 280 285 288 291 294 297 299 302 304 305 307 308 309 309 310 310 311 312 313 315 316 317 318 319 320 321 322 322 322 322 322 321 321 321 320 320 319 319 318 317 316 315 314 313 312 311 312
188 187 186 187 188 190 192 195 199 202 204 205 208 213 220 230 241 251 260 266 271 276 281 284 288 291 294 297 299 302 304 305 307 308 309 309 310 310 311 313 314 316 317 318 319 320 321 321 322 322 322 322 322 321 321 320 320 319 319 318 317 316 315 315 314 313 312 312 312
189 189 189 190 191 192 195 198 202 205 207 210 214 219 227 236 246 254 261 267 272 276 281 285 288 291 294 297 300 302 304 306 307 308 308 309 310 311 312 313 315 316 318 319 320 321 321 322 322 322 322 322 322 321 321 320 320 319 318 317 317 316 315 315 314 314 313 313 313
191 191 192 193 193 195 197 200 204 208 211 214 219 225 233 241 250 257 263 268 272 277 281 285 289 292 295 298 300 302 304 306 307 307 308 309 310 311 312 314 315 317 318 319 320 321 322 322 322 322 322 322 321 321 320 320 319 318 317 317 316 315 315 315 315 314 314 314 314
192 193 194 195 196 197 199 202 207 210 214 218 223 230 237 245 253 260 265 270 274 278 282 285 289 293 296 299 301 303 304 306 306 307 307 308 310 311 313 314 316 317 319 320 321 322 322 322 322 322 322 321 321 320 320 319 318 317 317 316 316 316 316 315 315 315 315 315 314
193 194 196 196 198 199 201 205 209 212 216 221 227 234 241 249 256 263 268 272 276 279 283 286 290 294 297 300 302 303 305 305 306 307 307 309 310 312 313 315 317 318 319 321 322 322 323 322 322 321 321 320 320 319 319 318 317 317 316 316 316 316 316 316 316 316 315 315 314
195 196 197 198 199 201 203 207 211 215 219 224 230 237 244 252 259 265 270 274 277 280 283 287 291 295 298 301 302 303 304 305 306 307 308 309 311 313 314 316 318 319 321 322 322 323 323 322 321 321 320 319 319 318 317 317 317 317 317 317 317 317 317 317 316 316 315 314 314
196 197 198 199 201 203 205 209 213 217 221 227 233 240 247 255 261 267 272 275 278 281 284 288 292 296 300 301 302 303 303 305 306 307 308 310 312 314 316 317 319 320 322 323 323 323 323 322 321 320 319 318 318 317 317 317 317 318 318 318 318 318 317 317 316 316 315 314 313
198 199 200 201 202 205 208 211 215 220 224 230 236 242 250 256 263 268 273 276 279 282 285 289 293 297 300 301 302 302 303 304 306 308 309 311 313 315 317 319 320 321 322 323 323 323 322 321 320 319 318 317 317 317 317 318 318 319 319 319 318 318 318 317 317 316 315 314 313
199 200 201 202 204 207 210 214 218 223 227 232 238 244 251 258 264 269 273 277 281 284 286 290 294 297 299 300 300 301 303 304 306 308 310 312 315 316 318 320 321 322 323 323 323 323 322 321 319 318 318 317 317 318 319 319 319 319 319 319 318 318 318 318 317 316 315 314 312
200 200 202 204 207 210 214 218 221 225 229 234 240 246 253 260 266 271 276 280 283 285 287 290 293 296 298 298 299 300 302 305 307 309 312 314 316 317 319 320 322 323 323 323 323 322 321 320 319 318 318 318 319 319 320 320 320 319 319 319 319 318 318 318 317 316 315 313 312
200 202 204 207 210 213 217 220 224 227 231 236 241 247 254 261 268 274 279 283 285 286 288 291 293 295 296 297 298 300 302 305 308 311 313 315 317 319 320 321 322 323 323 323 323 322 321 320 320 319 319 319 320 320 320 320 320 319 319 319 319 319 319 318 318 316 315 313 311
202 204 207 210 213 216 219 223 226 229 233 237 243 249 256 264 271 277 282 285 286 287 289 292 294 295 296 297 298 300 303 306 309 312 314 316 318 319 320 322 322 323 323 323 323 322 322 321 320 320 320 320 320 320 320 319 319 319 319 319 319 319 319 319 318 316 314 312 310
204 207 210 212 215 219 222 225 228 230 234 238 245 251 259 267 275 280 284 285 287 289 291 293 295 296 296 298 300 302 305 307 310 313 315 317 318 320 321 322 323 323 323 323 323 323 322 321 321 320 320 320 320 320 319 319 318 318 319 319 319 319 319 319 319 317 314 311 309
206 209 212 215 217 220 223 226 228 231 235 240 246 254 263 272 279 283 285 286 287 290 292 294 295 296 297 299 301 304 307 309 312 314 316 318 319 320 321 322 323 323 323 323 323 323 322 321 321 320 320 320 319 319 318 318 318 318 318 319 319 319 319 320 320 319 316 312 309
208 211 213 216 219 221 224 226 229 232 236 242 249 259 268 277 282 285 285 286 288 291 293 294 295 296 297 300 303 306 309 312 314 316 318 319 321 322 322 323 323 323 323 323 323 323 322 321 321 320 320 320 319 319 318 318 318 318 318 318 319 319 321 322 322 321 318 314 311
210 212 215 218 220 222 224 227 229 233 237 244 253 263 273 281 284 285 286 288 291 293 293 294 294 296 298 301 304 307 310 313 315 317 319 321 322 323 323 323 323 323 323 323 323 323 322 322 321 321 321 320 319 318 317 317 317 317 318 318 319 320 322 324 324 323 321 319 318
212 214 217 218 220 222 225 227 230 234 240 248 258 269 277 282 285 287 289 291 293 293 292 292 294 296 299 302 306 309 312 315 317 319 320 321 322 323 323 323 323 323 323 323 323 323 322 322 321 321 321 321 320 318 317 317 317 317 317 318 320 322 325 326 327 327 326 326 326
212 215 217 219 220 223 224 227 231 236 244 253 263 272 278 283 286 289 291 293 293 292 290 291 292 296 300 304 308 312 314 316 318 319 321 322 323 323 324 323 323 323 323 323 323 323 322 322 321 321 321 321 320 318 316 316 316 316 317 318 321 324 327 329 330 331 331 331 331
212 214 217 218 220 222 225 229 234 240 249 258 267 274 279 283 286 290 293 294 292 289 289 290 293 297 302 307 310 313 315 317 319 320 321 322 323 324 324 324 324 323 323 323 323 323 322 322 322 322 322 321 319 317 316 316 316 316 317 319 323 327 330 332 333 334 334 334 331
212 214 216 218 219 222 226 231 237 244 253 262 269 275 280 284 288 292 294 292 288 286 288 291 296 301 305 309 312 314 316 318 319 321 322 323 323 324 324 324 324 323 323 323 323 323 323 322 322 322 322 321 319 317 316 316 316 317 318 321 325 329 333 335 336 336 335 334 331
212 213 215 217 220 223 228 234 240 248 257 265 271 276 281 286 291 293 291 286 284 285 289 294 299 304 308 311 313 315 317 319 320 321 322 323 324 325 325 324 324 323 323 323 323 323 323 323 322 322 322 321 319 317 317 317 318 318 320 322 327 331 335 337 338 337 336 333 329
211 213 215 217 221 225 230 236 244 252 260 267 273 279 284 289 290 289 285 283 284 287 292 298 303 307 310 312 315 316 318 319 321 322 323 323 324 325 325 325 324 323 323 323 323 323 323 323 322 322 322 321 319 319 318 319 320 320 321 324 328 333 337 339 339 337 334 331 327
211 213 215 218 222 227 233 240 248 256 263 270 276 281 286 287 285 282 281 283 286 292 298 303 307 310 313 314 316 318 319 320 321 323 323 324 324 324 324 324 324 323 323 322 323 323 323 322 322 322 322 321 321 320 321 321 321 321 322 324 329 334 338 339 337 334 331 328 326
211 214 217 220 224 230 236 244 253 261 268 274 279 282 283 282 280 279 280 284 291 297 302 306 309 312 314 316 317 319 320 321 322 323 324 324 324 324 324 324 323 323 323 323 322 322 323 323 323 323 323 323 322 322 323 323 323 322 322 324 329 334 337 336 334 330 327 325 324
211 214 218 222 227 234 242 251 261 268 274 277 279 279 278 278 278 278 282 289 295 300 304 307 310 312 314 316 318 320 322 323 324 325 325 324 324 324 324 324 324 323 323 322 322 322 322 323 323 324 324 324 324 324 325 324 323 321 322 324 329 332 334 332 329 326 324 323 323
212 215 219 224 231 240 250 260 268 273 276 277 277 276 276 276 278 281 287 293 299 303 305 308 310 312 315 317 320 322 324 324 325 325 325 324 324 324 323 323 323 323 323 322 322 322 323 323 324 325 326 326 326 326 325 323 321 320 322 325 328 330 330 329 325 322 321 321 322
213 217 221 228 238 249 260 268 272 274 275 275 274 274 274 276 280 286 293 298 302 305 307 310 312 314 317 319 322 324 325 325 325 325 324 324 323 323 323 323 323 323 323 322 322 322 323 323 325 326 327 327 327 326 325 322 320 320 322 325 327 328 327 325 321 319 318 319 320
214 219 225 235 247 259 267 271 272 272 273 273 271 271 273 279 286 292 298 302 304 307 309 311 314 316 319 321 323 324 325 325 324 324 324 324 323 323 323 322 322 322 322 322 322 322 323 324 326 327 328 328 328 326 323 321 319 320 322 326 327 327 324 321 318 316 316 317 319
215 222 232 245 257 264 269 271 271 271 269 267 266 269 276 285 292 298 301 304 306 308 311 314 316 319 321 322 323 324 324 324 324 324 323 323 323 323 322 322 321 321 321 321 322 323 323 325 326 328 329 329 327 325 322 320 320 321 323 326 326 324 321 318 315 314 315 317 320